Stations météo

Publicité
Barth, Allemagne (10180): Température de l'air & dewpoint: 12.01.2018 06:00:00 - 18.01.2018 06:00:00 (CET)Barth, Allemagne (10180): Température de l'air 5cm & Température de l'air -5cm: 12.01.2018 06:00:00 - 18.01.2018 06:00:00 (CET)Barth, Allemagne (10180): Température de l'air -20cm & Température de l'air -100cm: 12.01.2018 06:00:00 - 18.01.2018 06:00:00 (CET)Barth, Allemagne (10180): Vitesse du vent & gusts: 12.01.2018 06:00:00 - 18.01.2018 06:00:00 (CET)Barth, Allemagne (10180): Direction du vent: 12.01.2018 06:00:00 - 18.01.2018 06:00:00 (CET)Barth, Allemagne (10180): reduced air pressure: 12.01.2018 06:00:00 - 18.01.2018 06:00:00 (CET)Barth, Allemagne (10180): visibility: 12.01.2018 06:00:00 - 18.01.2018 06:00:00 (CET)Barth, Allemagne (10180): Ensoleillement: 12.01.2018 06:00:00 - 18.01.2018 06:00:00 (CET)Barth, Allemagne (10180): Quantités de précipitations: 12.01.2018 06:00:00 - 18.01.2018 06:00:00 (CET)
Date & Time tt [°C] td [°C] tt 5cm [°C] tt -5cm [°C] tt -20cm [°C] tt -100cm [°C] ff [km/h] ff [knt] fx [km/h] fx [knt] dd ppp [hPa] vv [km] sd [min] rr [mm]
18.01.2018 06:00:00 2,1 0,3 1,3 0,0 0,8 5,1 16 9 35 19 SW 996,4 21 0 0,0
18.01.2018 05:00:00 2,2 0,4 1,5 0,0 0,8 5,1 20 11 42 23 WSW 996,8 25 0 0,0
18.01.2018 04:00:00 2,3 0,5 1,3 0,0 0,8 5,1 26 14 40 22 WSW 997,2 23 0 0,0
18.01.2018 03:00:00 2,0 0,7 1,4 0,0 0,8 5,1 21 12 41 22 WSW 997,5 18 0 0,2
18.01.2018 02:00:00 1,8 0,5 1,1 0,0 0,8 5,1 22 12 34 18 SW 997,6 15 0 0,0
18.01.2018 01:00:00 1,6 0,3 1,0 0,0 0,8 5,1 19 11 34 19 SW 997,6 23 0 0,1
18.01.2018 00:00:00 1,8 0,2 1,0 0,0 0,8 5,1 17 9 26 14 WSW 997,4 18 0 0,0
17.01.2018 23:00:00 1,8 0,5 1,0 0,0 0,8 5,1 17 9 36 20 WSW 997,1 14 0 0,0
17.01.2018 22:00:00 2,3 0,9 1,4 0,0 0,8 5,1 23 12 37 20 WSW 996,5 16 0 0,0
17.01.2018 21:00:00 2,1 0,8 1,3 0,0 0,8 5,1 19 10 39 21 W 996,1 24 0 0,2
17.01.2018 20:00:00 1,6 0,0 0,7 0,0 0,8 5,1 21 11 44 24 W 995,4 26 0 0,0
17.01.2018 19:00:00 1,6 0,5 0,8 0,0 0,8 5,1 19 10 35 19 W 994,7 32 0 0,3
17.01.2018 18:00:00 1,4 0,3 0,5 0,0 0,8 5,1 23 13 46 25 W 993,9 35 0 2,2
17.01.2018 17:00:00 2,5 0,7 1,5 0,0 0,8 5,1 25 13 36 19 WSW 993,2 33 0 0,0
17.01.2018 16:00:00 2,3 1,0 1,7 0,0 0,8 5,1 17 9 28 15 W 992,3 19 0 0,2
17.01.2018 15:00:00 1,8 0,7 1,4 0,0 0,8 5,1 22 12 37 20 W 991,7 7 0 0,2
17.01.2018 14:00:00 1,2 0,5 1,2 0,0 0,8 5,1 14 8 31 17 WSW 991,2 3,9 0 0,3
17.01.2018 13:00:00 2,1 0,5 1,7 0,0 0,8 5,1 18 10 27 15 WSW 990,8 6 0 0,0
17.01.2018 12:00:00 2,0 0,9 1,8 0,0 0,8 5,1 15 8 23 13 WSW 990,2 4,7 2 0,2
17.01.2018 11:00:00 1,7 0,5 1,3 0,0 0,8 5,1 16 9 24 13 SW 989,9 5 0 0,1
17.01.2018 10:00:00 1,5 0,1 1,0 0,0 0,8 5,1 14 8 28 15 SW 989,2 7 0 0,1
17.01.2018 09:00:00 1,8 -0,5 1,3 0,0 0,8 5,2 17 9 27 14 SW 988,7 14 0 0,0
17.01.2018 08:00:00 1,9 -0,3 1,3 0,0 0,8 5,2 15 8 24 13 SW 988,0 15 0 0,0
17.01.2018 07:00:00 1,8 -0,4 1,3 0,0 0,8 5,2 15 8 23 12 SW 987,6 15 0 0,0
17.01.2018 06:00:00 2,0 -0,3 1,5 0,0 0,8 5,2 16 9 27 14 SW 987,4 15 0 0,0
17.01.2018 05:00:00 1,8 -0,4 1,3 0,0 0,8 5,2 16 8 29 16 SW 987,2 15 0 0,0
17.01.2018 04:00:00 1,8 -0,5 1,0 0,0 0,8 5,2 17 9 27 15 SW 987,5 22 0 0,0
17.01.2018 03:00:00 1,8 -0,3 1,0 0,0 0,8 5,2 18 10 31 17 SW 987,6 16 0 0,0
17.01.2018 02:00:00 1,9 0,0 1,1 0,0 0,8 5,2 17 9 30 16 WSW 987,5 23 0 0,0
17.01.2018 01:00:00 1,3 -0,2 0,1 0,0 0,8 5,2 19 11 33 18 WSW 987,4 16 0 0,0
17.01.2018 00:00:00 1,8 0,2 1,1 0,0 0,8 5,2 21 12 31 17 WSW 987,5 25 0 0,0
16.01.2018 23:00:00 2,0 0,2 0,9 0,0 0,8 5,2 23 12 34 19 WSW 987,3 23 0 0,0
16.01.2018 22:00:00 2,2 0,6 1,3 0,0 0,8 5,2 23 12 36 19 WSW 987,2 39 0 0,0
16.01.2018 21:00:00 2,1 0,9 1,2 0,0 0,8 5,2 21 11 32 17 WSW 986,8 23 0 0,0
16.01.2018 20:00:00 2,4 0,9 1,7 0,0 0,8 5,2 19 11 32 18 WSW 986,8 21 0 0,0
16.01.2018 19:00:00 2,7 1,2 1,9 0,0 0,8 5,2 19 10 27 15 WSW 986,4 10 0 0,0
16.01.2018 18:00:00 2,5 1,0 1,5 0,0 0,8 5,2 11 6 19 10 SSW 986,2 21 0 0,0
16.01.2018 17:00:00 2,7 1,3 1,6 0,0 0,8 5,2 10 5 16 8 SSW 986,2 19 0 0,0
16.01.2018 16:00:00 2,8 1,1 1,5 0,0 0,8 5,2 9 5 21 11 SSW 986,1 24 0 0,0
16.01.2018 15:00:00 4,1 1,8 3,3 -0,1 0,8 5,2 17 9 26 14 SW 985,8 30 5 0,0
16.01.2018 14:00:00 3,6 2,2 2,9 -0,1 0,8 5,2 14 8 23 12 SSW 985,9 18 8 0,0
16.01.2018 13:00:00 3,5 2,4 2,9 -0,1 0,8 5,2 13 7 26 14 SSW 986,3 13 0 0,2
16.01.2018 12:00:00 3,3 2,1 3,0 -0,1 0,8 5,3 13 7 24 13 S 986,9 12 17 0,0
16.01.2018 11:00:00 3,4 2,5 3,3 -0,1 0,8 5,3 13 7 20 11 S 987,2 11 20 0,0
16.01.2018 10:00:00 2,3 1,5 1,2 -0,1 0,8 5,3 13 7 21 11 S 987,2 8 8 0,0
16.01.2018 09:00:00 2,3 1,6 1,6 -0,1 0,8 5,3 15 8 26 14 S 987,2 8 0 0,0
16.01.2018 08:00:00 1,8 1,1 1,1 -0,1 0,8 5,3 16 9 27 15 SSW 986,9 8 0 0,0
16.01.2018 07:00:00 1,4 0,7 1,0 -0,1 0,8 5,3 17 9 34 18 S 987,3 10 0 0,0
16.01.2018 06:00:00 1,3 0,7 0,7 -0,1 0,8 5,3 21 12 41 22 S 987,4 11 0 0,3
16.01.2018 05:00:00 0,9 0,4 0,4 -0,1 0,8 5,3 26 14 47 25 S 988,0 4,0 0 0,2
16.01.2018 04:00:00 0,6 0,2 0,0 -0,1 0,8 5,3 32 17 54 29 S 988,4 2,7 0 0,6
16.01.2018 03:00:00 0,7 -0,3 0,2 -0,1 0,8 5,3 38 21 57 31 SSE 989,5 2,2 0 0,1
16.01.2018 02:00:00 0,7 -0,5 0,2 -0,1 0,8 5,3 37 20 56 30 SSE 991,1 2,3 0 0,1
16.01.2018 01:00:00 1,7 -1,3 1,2 -0,1 0,8 5,3 37 20 58 31 SSE 992,6 6 0 0,0
16.01.2018 00:00:00 1,9 -2,0 1,5 -0,1 0,8 5,3 40 22 62 33 SSE 994,3 11 0 0,0
15.01.2018 23:00:00 2,2 -2,4 1,7 -0,1 0,8 5,3 35 19 54 29 SSE 996,0 13 0 0,0
15.01.2018 22:00:00 2,1 -2,5 1,6 -0,1 0,8 5,3 37 20 55 30 SSE 997,6 14 0 0,0
15.01.2018 21:00:00 2,0 -2,6 1,4 -0,1 0,8 5,3 34 19 51 28 SSE 999,3 14 0 0,0
15.01.2018 20:00:00 1,9 -2,6 1,3 -0,1 0,8 5,3 35 19 52 28 SSE 1001,1 14 0 0,0
15.01.2018 19:00:00 1,8 -2,4 1,3 -0,1 0,8 5,3 31 17 53 29 SSE 1002,7 12 0 0,0
15.01.2018 18:00:00 1,5 -2,6 0,7 -0,1 0,8 5,3 34 18 48 26 SSE 1004,0 12 0 0,0
15.01.2018 17:00:00 1,4 -2,7 0,5 -0,1 0,8 5,3 32 18 50 27 SSE 1005,6 11 0 0,0
15.01.2018 16:00:00 1,7 -2,8 0,8 -0,1 0,8 5,3 33 18 51 28 SSE 1007,0 11 1 0,0
15.01.2018 15:00:00 1,6 -2,9 1,5 -0,1 0,9 5,3 34 19 48 26 SSE 1008,6 12 10 0,0
15.01.2018 14:00:00 1,0 -3,3 0,9 -0,1 0,9 5,4 32 18 48 26 SSE 1009,7 7 31 0,0
15.01.2018 13:00:00 0,8 -3,5 1,3 -0,1 0,9 5,4 31 17 46 25 SSE 1011,6 7 58 0,0
15.01.2018 12:00:00 -0,1 -3,9 0,7 -0,2 0,9 5,4 29 16 47 26 SSE 1013,8 7 60 0,0
15.01.2018 11:00:00 -0,9 -4,3 -0,4 -0,3 0,9 5,4 29 16 42 23 SSE 1015,1 7 60 0,0
15.01.2018 10:00:00 -1,8 -4,7 -1,9 -0,4 0,9 5,4 22 12 38 21 SSE 1016,8 6 46 0,0
15.01.2018 09:00:00 -1,8 -4,7 -2,2 -0,3 0,9 5,4 26 14 37 20 SE 1017,6 6 0 0,0
15.01.2018 08:00:00 -2,0 -4,7 -2,1 -0,3 0,9 5,4 25 13 35 19 SE 1018,6 6 0 0,0
15.01.2018 07:00:00 -2,2 -4,9 -2,3 -0,3 0,9 5,4 22 12 29 16 SE 1019,9 6 0 0,0
15.01.2018 06:00:00 -2,3 -5,0 -2,4 -0,3 0,9 5,4 20 11 31 17 SSE 1020,7 6 0 0,0
15.01.2018 05:00:00 -2,7 -5,1 -2,8 -0,4 0,9 5,4 20 11 34 18 SSE 1021,6 6 0 0,0
15.01.2018 04:00:00 -3,4 -5,7 -4,3 -0,4 1,0 5,4 19 10 32 18 SSE 1022,7 6 0 0,0
15.01.2018 03:00:00 -3,4 -5,6 -4,3 -0,4 1,0 5,4 19 10 29 16 SSE 1023,9 6 0 0,0
15.01.2018 02:00:00 -3,1 -5,5 -4,0 -0,3 1,0 5,4 21 11 31 17 SSE 1024,7 6 0 0,0
15.01.2018 01:00:00 -3,1 -5,5 -4,1 -0,2 1,0 5,4 20 11 29 16 SSE 1025,6 6 0 0,0
15.01.2018 00:00:00 -3,1 -5,6 -4,2 -0,1 1,0 5,4 16 8 26 14 SSE 1026,3 6 0 0,0
14.01.2018 23:00:00 -3,0 -5,7 -4,1 -0,1 1,0 5,4 18 10 26 14 SSE 1027,0 5 0 0,0
14.01.2018 22:00:00 -3,3 -6,1 -4,3 0,0 1,0 5,4 16 8 24 13 SE 1027,4 6 0 0,0
14.01.2018 21:00:00 -3,5 -6,3 -4,6 0,0 1,1 5,4 15 8 26 14 SSE 1027,8 7 0 0,0
14.01.2018 20:00:00 -3,4 -6,7 -4,6 0,0 1,1 5,4 14 8 26 14 SE 1028,3 7 0 0,0
14.01.2018 19:00:00 -3,6 -6,9 -5,0 0,0 1,1 5,4 15 8 27 14 SE 1028,6 8 0 0,0
14.01.2018 18:00:00 -3,6 -7,0 -5,0 0,1 1,1 5,4 14 8 28 15 ESE 1029,1 9 0 0,0
14.01.2018 17:00:00 -3,0 -7,1 -4,3 0,1 1,1 5,4 16 9 31 17 SE 1029,3 10 0 0,0
14.01.2018 16:00:00 -2,3 -6,7 -2,6 0,1 1,1 5,4 21 12 31 17 SE 1029,7 11 0 0,0
14.01.2018 15:00:00 -1,9 -6,4 -1,7 0,1 1,1 5,4 23 12 32 17 SE 1029,9 11 0 0,0
14.01.2018 14:00:00 -1,7 -6,1 -1,2 0,1 1,1 5,5 21 11 34 19 SE 1030,1 9 4 0,0
14.01.2018 13:00:00 -1,1 -5,9 -0,2 0,1 1,1 5,5 21 11 33 18 SE 1030,6 8 60 0,0
14.01.2018 12:00:00 -1,3 -6,3 -0,5 0,1 1,1 5,5 20 11 35 19 SE 1031,1 12 60 0,0
14.01.2018 11:00:00 -1,0 -5,7 -0,4 0,1 1,1 5,5 19 10 32 17 ESE 1031,7 9 60 0,0
14.01.2018 10:00:00 -1,5 -5,4 -1,6 0,1 1,1 5,5 15 8 29 16 ESE 1031,7 9 48 0,0
14.01.2018 09:00:00 -1,7 -5,6 -3,0 0,1 1,2 5,5 15 8 29 16 ESE 1031,6 9 0 0,0
14.01.2018 08:00:00 -0,9 -5,4 -1,7 0,2 1,2 5,5 20 11 31 17 ESE 1031,4 9 0 0,0
14.01.2018 07:00:00 -0,7 -5,3 -0,9 0,2 1,2 5,5 17 9 29 16 ESE 1031,6 11 0 0,0
14.01.2018 06:00:00 -0,6 -5,6 -0,9 0,2 1,2 5,5 16 9 28 15 ESE 1031,7 11 0 0,0
14.01.2018 05:00:00 -0,7 -5,5 -1,0 0,2 1,2 5,5 16 9 31 17 SE 1031,9 11 0 0,0
14.01.2018 04:00:00 -0,6 -5,6 -0,8 0,2 1,2 5,5 17 9 31 17 SE 1032,0 12 0 0,0
14.01.2018 03:00:00 -0,6 -5,3 -0,9 0,2 1,2 5,5 16 9 33 18 SE 1032,4 12 0 0,0
14.01.2018 02:00:00 -0,5 -5,8 -0,8 0,2 1,2 5,5 23 12 35 19 SE 1032,5 13 0 0,0
14.01.2018 01:00:00 -0,5 -5,3 -0,8 0,2 1,3 5,5 15 8 33 18 SE 1032,7 13 0 0,0
14.01.2018 00:00:00 -0,5 -5,3 -0,8 0,2 1,3 5,5 22 12 36 19 SE 1033,0 12 0 0,0
13.01.2018 23:00:00 -0,6 -5,2 -0,8 0,2 1,3 5,5 20 11 40 22 SE 1033,1 11 0 0,0
13.01.2018 22:00:00 -0,5 -5,4 -0,8 0,2 1,3 5,5 24 13 41 22 SE 1033,2 11 0 0,0
13.01.2018 21:00:00 -0,4 -4,9 -0,8 0,2 1,3 5,5 17 9 31 17 ESE 1033,4 12 0 0,0
13.01.2018 20:00:00 -0,5 -5,5 -0,9 0,3 1,4 5,5 19 10 32 17 SE 1033,6 17 0 0,0
13.01.2018 19:00:00 -1,1 -5,5 -1,3 0,3 1,4 5,5 16 9 32 17 SE 1033,9 14 0 0,0
13.01.2018 18:00:00 -1,3 -5,8 -1,5 0,3 1,4 5,5 22 12 37 20 SE 1034,0 10 0 0,0
13.01.2018 17:00:00 -1,2 -5,0 -1,3 0,4 1,5 5,5 15 8 32 17 SE 1034,0 11 0 0,0
13.01.2018 16:00:00 -0,9 -4,7 -1,0 0,5 1,5 5,5 16 9 32 17 ESE 1033,9 13 0 0,0
13.01.2018 15:00:00 -0,4 -4,4 0,3 0,9 1,4 5,5 19 10 33 18 SE 1033,8 18 52 0,0
13.01.2018 14:00:00 -0,8 -4,0 -0,9 0,9 1,4 5,5 23 12 32 18 SSE 1034,0 13 36 0,0
13.01.2018 13:00:00 0,0 -3,1 0,8 0,8 1,3 5,5 19 10 28 15 SSE 1034,0 7 13 0,0
13.01.2018 12:00:00 -0,1 -2,5 0,2 0,5 1,3 5,6 16 9 29 16 SE 1034,5 6 0 0,0
13.01.2018 11:00:00 -0,1 -2,2 0,0 0,3 1,3 5,6 16 9 29 15 SE 1034,5 4,7 0 0,0
13.01.2018 10:00:00 -0,2 -2,1 -0,3 0,3 1,4 5,6 18 10 30 16 ESE 1034,3 3,9 0 0,0
13.01.2018 09:00:00 -0,3 -2,3 -0,4 0,3 1,4 5,6 19 10 31 17 ESE 1033,9 4,0 0 0,0
13.01.2018 08:00:00 -0,2 -2,0 -0,4 0,3 1,4 5,6 19 10 29 16 ESE 1033,7 3,0 0 0,0
13.01.2018 07:00:00 -0,2 -2,0 -0,4 0,3 1,4 5,6 16 9 29 16 ESE 1033,7 2,6 0 0,0
13.01.2018 06:00:00 -0,1 -1,6 -0,3 0,4 1,5 5,6 19 10 31 17 ESE 1033,6 1,6 0 0,0
13.01.2018 05:00:00 -0,1 -1,5 -0,3 0,4 1,5 5,6 20 11 31 17 ESE 1033,6 1,4 0 0,0
13.01.2018 04:00:00 0,1 -1,1 -0,1 0,5 1,6 5,6 18 10 30 16 ESE 1033,8 1,8 0 0,0
13.01.2018 03:00:00 0,1 -0,7 0,0 0,6 1,6 5,6 11 6 21 11 ESE 1033,8 1,5 0 0,1
13.01.2018 02:00:00 0,4 -1,1 0,0 0,8 1,6 5,6 17 9 24 13 SE 1033,5 2,0 0 0,0
13.01.2018 01:00:00 0,5 -0,3 0,2 0,9 1,7 5,6 14 7 25 13 ESE 1033,5 2,9 0 0,0
13.01.2018 00:00:00 0,6 -0,2 0,4 0,9 1,7 5,6 17 9 31 17 ESE 1033,5 3,0 0 0,0
12.01.2018 23:00:00 0,7 -0,2 0,5 1,0 1,7 5,6 17 9 28 15 E 1033,2 3,0 0 0,0
12.01.2018 22:00:00 1,1 -0,6 0,8 1,1 1,7 5,6 20 11 29 16 ESE 1033,1 6 0 0,0
12.01.2018 21:00:00 1,6 -0,3 1,3 1,2 1,7 5,6 16 9 27 14 ESE 1033,1 7 0 0,0
12.01.2018 20:00:00 1,7 0,0 1,4 1,3 1,6 5,6 19 10 26 14 E 1032,8 7 0 0,0
12.01.2018 19:00:00 1,8 0,2 1,5 1,3 1,6 5,6 18 10 31 17 ESE 1032,3 7 0 0,0
12.01.2018 18:00:00 2,0 0,3 1,7 1,3 1,6 5,7 23 12 33 18 E 1031,9 8 0 0,0
12.01.2018 17:00:00 2,0 0,4 1,7 1,4 1,5 5,7 22 12 32 17 E 1031,8 9 0 0,0
12.01.2018 16:00:00 2,0 0,3 1,7 1,4 1,4 5,7 23 13 34 18 E 1031,5 10 0 0,0
12.01.2018 15:00:00 2,4 0,4 2,3 1,4 1,3 5,7 24 13 32 17 E 1031,3 13 0 0,0
12.01.2018 14:00:00 2,8 0,7 2,7 1,1 1,2 5,7 24 13 33 18 E 1031,2 14 0 0,0
12.01.2018 13:00:00 2,4 0,4 2,4 0,6 1,2 5,7 11 6 20 11 ENE 1030,9 12 0 0,0
12.01.2018 12:00:00 1,9 -0,3 1,9 0,3 1,2 5,7 11 6 25 14 E 1031,0 12 0 0,0
12.01.2018 11:00:00 1,6 -0,9 1,4 0,2 1,1 5,7 22 12 41 22 ESE 1030,7 13 0 0,0
12.01.2018 10:00:00 1,1 -1,0 0,6 0,2 1,1 5,7 18 10 31 17 E 1030,3 9 0 0,0
12.01.2018 09:00:00 0,8 -0,7 0,3 0,2 1,1 5,7 24 13 36 19 E 1029,8 10 0 0,0
12.01.2018 08:00:00 0,9 0,1 0,6 0,1 1,1 5,7 23 12 37 20 E 1028,9 3,9 0 0,0
12.01.2018 07:00:00 1,2 0,7 0,9 0,1 1,1 5,7 21 11 37 20 E 1028,0 2,6 0 0,0
12.01.2018 06:00:00 1,3 0,8 1,1 0,1 1,1 5,7 25 14 35 19 E 1027,7 2,1 0 0,0

tt = Température de l'air
td = dewpoint
tt 5cm = Température de l'air 5cm
tt -5cm = Température de l'air -5cm
tt -20cm = Température de l'air -20cm
tt -100cm = Température de l'air -100cm
ff = Vitesse du vent
fx = gusts
dd = Direction du vent
ppp = reduced air pressure
vv = visibility
sd = Ensoleillement
rr = Quantités de précipitations

stations d'obs. à proximité